Regional Weather Roundup
Issued by NWS State College, PA

Home | Current Version | Previous Version | Graphics & Text | Print | Product List | Glossary Off
Versions: 1 2 3 4 5 6 7 8 9 10 11 12 13 14 15 16 17 18 19 20 21 22 23 24 25 26 27 28 29 30 31 32 33 34 35 36 37 38 39 40 41 42 43 44 45 46 47 48 49 50

000
ASUS41 KCTP 021110
RWRCTP

REGIONAL WEATHER ROUNDUP
NATIONAL WEATHER SERVICE STATE COLLEGE PA
700 AM EDT WED SEP 02 2015

Note: "fair" indicates few or no clouds below 12,000 feet with no
significant weather and/or obstructions to visibility.

* = STATION THAT DOES NOT REPORT PRECIPITATION /E.G. RAIN...SNOW...ETC/
    THUNDER OR FOG.

PAZ002>004-007>009-013>016-020>023-029>032-021200-
WESTERN PENNSYLVANIA

CITY           SKY/WX    TMP DP  RH WIND       PRES   REMARKS
ERIE           CLEAR     70  63  78 S6        30.07R
MEADVILLE      CLEAR     68  63  84 S3        30.11S
FRANKLIN*      CLEAR     63  61  94 CALM      30.14R
NEW CASTLE     FAIR      66  66 100 CALM      30.12R FOG
BEAVER COUNTY  NOT AVBL
BUTLER*          N/A     64  63  94 CALM      30.13R VSB 1/4
PITTSBURGH INT CLOUDY    70  66  87 SW3       30.11R
PITTSBURGH     MOCLDY    69  63  81 S3        30.11R
INDIANA*       NOT AVBL
LATROBE        MOCLDY    66  66 100 CALM      30.12R
WASHINGTON CO* MOCLDY    66  64  94 CALM      30.12S
$$

PAZ004>006-010>012-017>019-024>028-033>037-041-042-045-046-049>053-021200-
CENTRAL PENNSYLVANIA

CITY           SKY/WX    TMP DP  RH WIND       PRES   REMARKS
BRADFORD       MOCLDY    54  52  93 CALM      30.14S FOG
DUBOIS         FOG       65  62  90 CALM      30.13R VSB 1
CLEARFIELD     FOG       61  60  97 CALM      30.13R VSB<1/4
JOHNSTOWN      PTCLDY    66  62  87 SW7       30.16R FOG
ALTOONA        PTCLDY    63  61  93 S3        30.12R FOG
STATE COLLEGE  MOCLDY    64  63  94 CALM      30.11R FOG
WILLIAMSPORT   CLOUDY    67  65  93 W8        30.06R FOG
SELINSGROVE    CLOUDY    62  60  93 CALM      30.07R FOG
FT INDIANTOWN  MOCLDY    63  62  99 CALM      30.05S FOG
CAPITAL CITY   CLEAR     66  63  90 CALM      30.05R
HARRISBURG     MOCLDY    69  66  90 CALM      30.04S FOG
YORK           PTCLDY    62  60  93 CALM      30.06R FOG
$$

PAZ038>040-043-044-047-048-054-055-060>062-067>071-021200-
EASTERN PENNSYLVANIA

CITY           SKY/WX    TMP DP  RH WIND       PRES   REMARKS
SCRANTON       CLEAR     64  60  87 CALM      30.07R FOG
MOUNT POCONO   CLEAR     58  55  90 CALM      30.10S FOG
ALLENTOWN      CLEAR     64  62  93 CALM      30.05R FOG
QUAKERTOWN*    PTSUNNY   63  63 100 CALM      30.06R
READING        PTCLDY    66  63  90 CALM      30.04R FOG
LANCASTER      CLEAR     65  64  97 CALM      30.06R FOG
COATESVILLE    MOSUNNY   68  66  94 W6        30.07R FOG
POTTSTOWN      MOCLDY    65  64  97 CALM      30.07R FOG
BLUE BELL      MOCLDY    64  64 100 CALM      30.05R VSB 1
DOYLESTOWN     PTCLDY    64  64 100 CALM      30.05R FOG
WILLOW GROVE   NOT AVBL
NORTH PHILA    FOG       72  68  87 CALM      30.06R VSB<1/4
PHILADELPHIA   MOCLDY    74  69  85 VRB5      30.04R FOG
$$


USA.gov is the U.S. government's official web portal to all federal, state and local government web resources and services.